Location: UBC Liquid-Mirror Observatory
(49.2876°N, 122.5728°W)
Time: 00:21:24
(UTC-07:00)

Amateur Radio Satellites - All Passes

Search period start: 18 August 2017 23:51
Search period end: 19 August 2017 23:51
Location: UBC Liquid-Mirror Observatory, 49.2876°N, 122.5728°W

Satellite Date Start Highest point End Downlink Frequencies (MHz)
Time Altitude Azimuth
ESTCUBE 1 18 Aug 23:58:02 00:02:30 66° 258° (WSW) 00:07:02 437.505/2401.250
QB50P2 19 Aug 00:01:09 00:03:47 16° 90° (E) 00:06:25 145.880/145.840
EO-79 19 Aug 00:02:49 00:05:18 15° 89° (E) 00:07:47 145.935-145.965
UKube-1 19 Aug 00:10:43 00:12:01 11° 54° (NE) 00:13:18 .
VELOX 1 19 Aug 00:14:59 00:19:15 46° 69° (ENE) 00:23:32 145.980
50 SAT 19 Aug 00:14:59 00:17:07 16° 63° (ENE) 00:19:14 437.505
UNISAT 6 19 Aug 00:18:07 00:21:47 28° 295° (WNW) 00:25:29 437.425
DX 1 19 Aug 00:25:13 00:28:30 21° 61° (ENE) 00:31:48 434.975-435.025
DUCHIFAT 1 19 Aug 00:34:56 00:38:25 25° 94° (E) 00:41:53 145.980
LO-87 19 Aug 00:37:44 00:39:42 14° 270° (W) 00:41:40 145.935 - 145.965
M-CUBED/EXP-1 PRIME 19 Aug 00:39:07 00:43:29 46° 104° (ESE) 00:47:32 437.505
SPROUT 19 Aug 00:40:09 00:44:26 86° 261° (W) 00:48:42 437.525
PCSat 19 Aug 00:42:11 00:47:36 70° 308° (NW) 00:53:03 145.827
SO-50 19 Aug 00:42:26 00:46:54 69° 126° (SE) 00:51:25 436.795
YUBILEINY 19 Aug 00:50:47 00:52:55 11° 39° (NE) 00:55:02 435.215
TIGRISAT 19 Aug 00:54:47 00:57:18 15° 301° (WNW) 00:59:48 435.000
AIST 2D 19 Aug 01:03:32 01:06:59 47° 288° (WNW) 01:10:25 435.315
FO-29 19 Aug 01:04:28 01:07:11 14° 313° (NW) 01:09:49 435.910
PRISM 19 Aug 01:06:12 01:08:30 15° 302° (WNW) 01:10:48 437.425
NANOSAT C BR1 19 Aug 01:18:13 01:22:26 77° 105° (ESE) 01:26:37 145.865
POLYITAN 1 19 Aug 01:20:44 01:24:58 90° 143° (SE) 01:29:11 437.675
QB50P2 19 Aug 01:35:49 01:39:58 59° 288° (WNW) 01:44:06 145.880/145.840
EO-79 19 Aug 01:37:19 01:41:28 62° 288° (WNW) 01:45:37 145.935-145.965
UKube-1 19 Aug 01:42:57 01:47:16 75° 73° (ENE) 01:51:37 .
Oscar 19 19 Aug 01:43:12 01:47:04 21° 91° (E) 01:50:55 437.125/150
50 SAT 19 Aug 01:46:12 01:49:29 43° 261° (W) 01:52:47 437.505
VELOX 1 19 Aug 01:52:24 01:55:55 22° 267° (W) 01:59:27 145.980
ITUPSAT 1 19 Aug 01:55:12 01:58:11 17° 56° (ENE) 02:01:10 437.325
DX 1 19 Aug 02:00:05 02:04:22 52° 259° (W) 02:08:41 434.975-435.025
DUCHIFAT 1 19 Aug 02:10:20 02:14:10 36° 292° (WNW) 02:18:00 145.980
M-CUBED/EXP-1 PRIME 19 Aug 02:13:54 02:17:36 25° 304° (NW) 02:21:08 437.505
BUGSAT 1 19 Aug 02:19:04 02:23:07 88° 112° (ESE) 02:27:08 437.445
SPROUT 19 Aug 02:20:40 02:21:00 10° 274° (W) 02:21:19 437.525
SO-50 19 Aug 02:23:58 02:27:46 26° 327° (NNW) 02:31:37 436.795
PCSat 19 Aug 02:27:57 02:31:59 21° 331° (NNW) 02:36:02 145.827
NO-84 19 Aug 02:32:00 02:34:07 19° 136° (SE) 02:36:14 435.350 FM
Gurwin Techsat 1B 19 Aug 02:38:12 02:43:13 40° 97° (E) 02:48:11 435.225
YUBILEINY 19 Aug 02:44:43 02:52:53 41° 67° (ENE) 03:00:58 435.215
NANOSAT C BR1 19 Aug 02:55:22 02:57:35 14° 302° (WNW) 02:59:48 145.865
BEESAT 19 Aug 02:57:55 03:02:32 54° 69° (ENE) 03:07:11 436.000
POLYITAN 1 19 Aug 02:58:20 03:00:06 13° 303° (WNW) 03:01:54 437.675
MOZHAYETS 4 19 Aug 03:00:59 03:05:19 45° 69° (ENE) 03:09:41
CUBESAT XI-V 19 Aug 03:16:38 03:19:43 18° 59° (ENE) 03:22:50 437.345
UKube-1 19 Aug 03:21:39 03:23:49 13° 271° (W) 03:25:59 .
Oscar 19 19 Aug 03:21:41 03:26:51 65° 289° (WNW) 03:32:00 437.125/150
KKS-1 19 Aug 03:30:31 03:32:21 12° 55° (NE) 03:34:12 437.445
ITUPSAT 1 19 Aug 03:30:40 03:35:25 80° 256° (WSW) 03:40:13 437.325
AO-7 19 Aug 03:50:24 03:57:36 31° 94° (E) 04:04:44 .
BUGSAT 1 19 Aug 03:56:21 03:57:51 12° 303° (WNW) 03:59:20 437.445
SO-50 19 Aug 04:07:49 04:09:45 12° 351° (N) 04:11:41 436.795
NO-84 19 Aug 04:08:25 04:11:14 61° 334° (NNW) 04:14:05 435.350 FM
STARS 19 Aug 04:14:25 04:16:45 14° 56° (ENE) 04:19:04 437.465
PCSat 19 Aug 04:15:35 04:17:35 12° 357° (N) 04:19:35 145.827
Gurwin Techsat 1B 19 Aug 04:18:19 04:23:07 35° 296° (WNW) 04:27:53 435.225
ITAMSAT 1 19 Aug 04:36:34 04:41:38 52° 100° (E) 04:46:40 435.822/435.867
BEESAT 19 Aug 04:37:01 04:40:38 21° 268° (W) 04:44:16 436.000
MOZHAYETS 4 19 Aug 04:39:03 04:42:42 23° 268° (W) 04:46:21
YUBILEINY 19 Aug 04:41:35 04:49:58 55° 270° (W) 04:58:19 435.215
CUBESAT XI-V 19 Aug 04:51:56 04:56:34 72° 258° (WSW) 05:01:17 437.345
Oscar 19 19 Aug 05:03:05 05:05:12 13° 309° (NW) 05:07:20 437.125/150
KKS-1 19 Aug 05:03:42 05:08:11 80° 73° (ENE) 05:12:41 437.445
ITUPSAT 1 19 Aug 05:12:45 05:14:02 11° 274° (W) 05:15:19 437.325
AO-7 19 Aug 05:42:45 05:51:04 72° 295° (WNW) 05:59:18 .
NO-84 19 Aug 05:46:31 05:49:00 26° 356° (N) 05:51:33 435.350 FM
STARS 19 Aug 05:48:03 05:52:28 85° 257° (WSW) 05:56:54 437.465
SO-50 19 Aug 05:49:39 05:52:07 14° 16° (NNE) 05:54:36 436.795
BEESAT 3 19 Aug 05:58:32 06:02:00 29° 118° (ESE) 06:05:32 437.485
PCSat 19 Aug 05:59:49 06:03:21 17° 23° (NNE) 06:06:51 145.827
BEESAT 2 19 Aug 06:09:18 06:11:22 14° 111° (ESE) 06:13:28 435.950
AO-85 19 Aug 06:13:23 06:16:39 26° 118° (ESE) 06:19:56 145.980
STRAND 1 19 Aug 06:15:11 06:18:55 21° 58° (ENE) 06:22:38 437.568
ITAMSAT 1 19 Aug 06:16:32 06:20:50 27° 300° (WNW) 06:25:06 435.822/435.867
XW-2C 19 Aug 06:20:04 06:22:22 15° 90° (E) 06:24:39 145.795 - 145.815
CUTE-I 19 Aug 06:31:46 06:35:45 21° 91° (E) 06:39:41 437.470
XW-2F 19 Aug 06:33:27 06:36:19 20° 92° (E) 06:39:09 145.980 - 146.000
DOVE 4 19 Aug 06:38:05 06:42:48 67° 101° (E) 06:47:10 437.250
YUBILEINY 19 Aug 06:42:08 06:44:37 11° 293° (WNW) 06:47:07 435.215
KKS-1 19 Aug 06:43:10 06:45:19 13° 272° (W) 06:47:28 437.445
KAITUO 1B 19 Aug 07:01:36 07:05:03 31° 96° (E) 07:08:27 145.475/437.950
LilacSat-2 19 Aug 07:16:21 07:20:13 64° 101° (ESE) 07:24:04 437.200
XW-2D 19 Aug 07:23:02 07:26:53 74° 102° (ESE) 07:30:43 145.860 - 145.880
NO-84 19 Aug 07:24:08 07:26:54 36° 17° (NNE) 07:29:48 435.350 FM
HO-68 19 Aug 07:24:30 07:30:11 25° 90° (E) 07:35:50 435.675
STARS 19 Aug 07:28:37 07:29:30 10° 274° (W) 07:30:23 437.465
SO-50 19 Aug 07:29:34 07:33:49 37° 39° (NE) 07:38:06 436.795
XW-2B 19 Aug 07:34:02 07:37:54 87° 284° (WNW) 07:41:45 145.730 - 145.750
BEESAT 3 19 Aug 07:35:39 07:39:28 40° 317° (NW) 07:43:21 437.485
AO-7 19 Aug 07:36:29 07:42:32 23° 318° (NW) 07:48:34 .
NUDT-PHONESAT 19 Aug 07:37:07 07:40:53 77° 103° (ESE) 07:44:38 437.300
CUBEBUG 2 19 Aug 07:37:21 07:38:47 11° 87° (E) 07:40:13 437.445
PCSat 19 Aug 07:42:46 07:48:03 49° 47° (NE) 07:53:19 145.827
BEESAT 2 19 Aug 07:44:31 07:48:33 80° 310° (NW) 07:52:39 435.950
CUTE 1.7 + AOD 2 19 Aug 07:44:39 07:48:15 25° 93° (E) 07:51:50 437.475
FO-29 19 Aug 07:49:22 07:54:45 23° 55° (NE) 07:59:46 435.910
STRAND 1 19 Aug 07:52:30 07:57:36 70° 257° (WSW) 08:02:44 437.568
XW-2C 19 Aug 07:53:07 07:56:52 53° 288° (WNW) 08:00:37 145.795 - 145.815
AO-85 19 Aug 07:53:08 07:56:52 41° 318° (NW) 08:00:39 145.980
XW-2F 19 Aug 08:07:00 08:10:36 39° 290° (WNW) 08:14:10 145.980 - 146.000
CUTE-I 19 Aug 08:10:58 08:16:16 65° 290° (WNW) 08:21:30 437.470
DOVE 4 19 Aug 08:16:47 08:19:56 18° 302° (WNW) 08:22:58 437.250
ZACube-1 19 Aug 08:18:38 08:19:38 11° 86° (E) 08:20:37 437.345
KAITUO 1B 19 Aug 08:35:47 08:38:55 25° 294° (WNW) 08:42:04 145.475/437.950
SEEDS 19 Aug 08:35:49 08:40:00 53° 100° (E) 08:44:10 437.485
AO-73 19 Aug 08:39:34 08:42:15 16° 90° (E) 08:44:56 145.935
TIGRISAT 19 Aug 08:45:12 08:47:29 14° 58° (ENE) 08:49:45 435.000
PRISM 19 Aug 08:50:03 08:51:50 13° 57° (ENE) 08:53:38 437.425
LilacSat-2 19 Aug 08:51:53 08:54:02 14° 299° (WNW) 08:56:10 437.200
XW-2D 19 Aug 08:58:49 09:00:33 13° 301° (WNW) 09:02:17 145.860 - 145.880
NO-84 19 Aug 09:01:25 09:04:22 49° 216° (SW) 09:07:32 435.350 FM
XW-2A 19 Aug 09:08:18 09:11:42 74° 285° (WNW) 09:15:06 145.665 - 145.685
UWE-3 19 Aug 09:08:22 09:12:32 57° 101° (E) 09:16:45 435.000/436.395/437.385
SO-50 19 Aug 09:10:04 09:14:20 41° 239° (WSW) 09:18:38 436.795
XW-2B 19 Aug 09:10:42 09:11:26 10° 302° (WNW) 09:12:10 145.730 - 145.750
HO-68 19 Aug 09:11:28 09:18:38 77° 291° (WNW) 09:25:47 435.675
CUBEBUG 2 19 Aug 09:11:47 09:15:58 81° 286° (WNW) 09:20:13 437.445
NUDT-PHONESAT 19 Aug 09:12:48 09:14:13 12° 301° (WNW) 09:15:38 437.300
BEESAT 3 19 Aug 09:16:12 09:18:06 13° 339° (NNW) 09:19:59 437.485
CUTE 1.7 + AOD 2 19 Aug 09:20:12 09:24:11 38° 292° (WNW) 09:28:10 437.475
BEESAT 2 19 Aug 09:24:05 09:26:56 18° 331° (NNW) 09:29:49 435.950
Oscar 11 19 Aug 09:26:02 09:30:02 34° 96° (E) 09:34:00 .
PCSat 19 Aug 09:26:28 09:31:18 34° 248° (WSW) 09:36:07 145.827
AAUSAT CUBESAT 2 19 Aug 09:26:56 09:31:10 85° 103° (ESE) 09:35:21 437.432
FO-29 19 Aug 09:31:28 09:39:04 86° 73° (ENE) 09:45:57 435.910
AO-85 19 Aug 09:36:33 09:38:19 13° 341° (NNW) 09:40:06 145.980
STRAND 1 19 Aug 09:37:12 09:37:44 10° 276° (W) 09:38:16 437.568
O/OREOS (USA 219) 19 Aug 09:42:54 09:46:05 19° 102° (ESE) 09:49:16 437.305
UNISAT 6 19 Aug 09:43:47 09:47:59 50° 70° (ENE) 09:52:08 437.425
ZACube-1 19 Aug 09:52:16 09:56:31 90° 285° (WNW) 10:00:52 437.345
CUTE-I 19 Aug 09:53:01 09:55:20 13° 310° (NW) 09:57:39 437.470
M-CUBED/EXP-1 PRIME 19 Aug 09:55:13 09:58:24 19° 52° (NE) 10:01:38 437.505
AIST 2D 19 Aug 10:11:04 10:12:05 11° 60° (ENE) 10:13:06 435.315
SEEDS 19 Aug 10:12:16 10:15:20 20° 298° (WNW) 10:18:24 437.485
AO-73 19 Aug 10:14:40 10:18:51 60° 287° (WNW) 10:23:07 145.935
TIGRISAT 19 Aug 10:19:17 10:23:37 80° 257° (WSW) 10:27:55 435.000
PRISM 19 Aug 10:22:18 10:26:29 90° 289° (WNW) 10:30:41 437.425
EO-88 19 Aug 10:23:18 10:26:04 20° 93° (E) 10:28:51 145.990 - 145.960
NANOSAT C BR1 19 Aug 10:40:59 10:42:57 13° 57° (ENE) 10:44:54 145.865
POLYITAN 1 19 Aug 10:43:26 10:45:50 15° 59° (ENE) 10:48:15 437.675
Tancredo 1 19 Aug 10:45:31 10:48:02 26° 146° (SE) 10:50:34 437.200
UWE-3 19 Aug 10:45:46 10:48:37 18° 299° (WNW) 10:51:32 435.000/436.395/437.385
DELFI C3 19 Aug 10:49:03 10:53:03 64° 102° (ESE) 10:56:59 145.870
CUBEBUG 2 19 Aug 10:50:45 10:51:54 11° 304° (WNW) 10:53:05 437.445
QB50P2 19 Aug 10:57:28 11:00:41 22° 62° (ENE) 11:03:54 145.880/145.840
Max Valier Satellite 19 Aug 10:58:17 11:01:57 63° 101° (ESE) 11:05:37 145.860
EO-79 19 Aug 10:58:56 11:02:03 21° 62° (ENE) 11:05:11 145.935-145.965
HO-68 19 Aug 11:00:20 11:05:20 21° 312° (NW) 11:10:20 435.675
Oscar 11 19 Aug 11:02:19 11:06:05 29° 294° (WNW) 11:09:51 .
AAUSAT CUBESAT 2 19 Aug 11:04:03 11:06:00 13° 302° (WNW) 11:07:56 437.432
FO-29 19 Aug 11:19:06 11:24:44 23° 271° (W) 11:30:04 435.910
O/OREOS (USA 219) 19 Aug 11:20:41 11:25:05 56° 301° (WNW) 11:29:31 437.305
UNISAT 6 19 Aug 11:21:51 11:24:59 19° 269° (W) 11:28:05 437.425
ISS 19 Aug 11:24:19 11:26:54 21° 142° (SE) 11:29:28 437.550
M-CUBED/EXP-1 PRIME 19 Aug 11:27:43 11:32:14 76° 250° (WSW) 11:36:56 437.505
RS-15 19 Aug 11:28:01 11:39:14 45° 110° (ESE) 11:50:31 29.354- 29.394
ZACube-1 19 Aug 11:30:23 11:32:11 13° 303° (WNW) 11:34:01 437.345
DUCHIFAT 1 19 Aug 11:30:23 11:34:06 32° 66° (ENE) 11:37:50 145.980
nSIGHT-1 19 Aug 11:34:41 11:37:29 26° 144° (SE) 11:40:16 .
BUGSAT 1 19 Aug 11:39:33 11:41:34 14° 58° (ENE) 11:43:35 437.445
AIST 2D 19 Aug 11:41:17 11:44:45 72° 258° (WSW) 11:48:16 435.315
ESTCUBE 1 19 Aug 11:46:50 11:50:13 20° 91° (E) 11:53:33 437.505/2401.250
EO-88 19 Aug 11:56:29 11:59:52 35° 291° (WNW) 12:03:14 145.990 - 145.960
LO-87 19 Aug 11:58:36 12:01:51 33° 97° (E) 12:05:05 145.935 - 145.965
PRISM 19 Aug 12:01:44 12:02:23 10° 273° (W) 12:03:02 437.425
NANOSAT C BR1 19 Aug 12:13:51 12:18:03 85° 253° (WSW) 12:22:16 145.865
POLYITAN 1 19 Aug 12:16:55 12:21:07 72° 258° (WSW) 12:25:19 437.675
Tancredo 1 19 Aug 12:20:08 12:23:04 74° 345° (NNW) 12:25:59 437.200
SPROUT 19 Aug 12:23:24 12:25:03 12° 87° (E) 12:26:43 437.525
DELFI C3 19 Aug 12:25:00 12:27:21 15° 300° (WNW) 12:29:40 145.870
Gurwin Techsat 1B 19 Aug 12:26:02 12:29:28 18° 55° (NE) 12:32:55 435.225
QB50P2 19 Aug 12:32:09 12:36:12 46° 261° (W) 12:40:17 145.880/145.840
EO-79 19 Aug 12:33:26 12:37:31 48° 260° (W) 12:41:37 145.935-145.965
Max Valier Satellite 19 Aug 12:33:29 12:35:20 13° 299° (WNW) 12:37:12 145.860
BEESAT 3 19 Aug 12:34:01 12:36:40 17° 27° (NNE) 12:39:18 437.485
BEESAT 2 19 Aug 12:44:08 12:45:52 12° 19° (NNE) 12:47:36 435.950
AO-85 19 Aug 12:59:30 13:02:33 19° 31° (NNE) 13:05:44 145.980
ISS 19 Aug 12:59:46 13:03:03 88° 161° (SSE) 13:06:21 437.550
Oscar 19 19 Aug 13:03:45 13:08:38 45° 67° (ENE) 13:13:33 437.125/150
O/OREOS (USA 219) 19 Aug 13:03:59 13:05:32 12° 323° (NW) 13:07:06 437.305
AO-7 19 Aug 13:04:56 13:10:30 20° 39° (NE) 13:16:02 .
DUCHIFAT 1 19 Aug 13:06:08 13:09:46 29° 265° (W) 13:13:26 145.980
M-CUBED/EXP-1 PRIME 19 Aug 13:06:24 13:07:25 11° 270° (W) 13:08:27 437.505
nSIGHT-1 19 Aug 13:10:22 13:13:38 81° 343° (NNW) 13:16:54 .
BUGSAT 1 19 Aug 13:12:18 13:16:24 77° 257° (WSW) 13:20:29 437.445
ESTCUBE 1 19 Aug 13:22:53 13:27:19 53° 290° (WNW) 13:31:45 437.505/2401.250
LO-87 19 Aug 13:32:26 13:35:06 20° 295° (WNW) 13:37:45 145.935 - 145.965
VELOX 1 19 Aug 13:36:50 13:41:10 51° 100° (E) 13:45:27 145.980
RS-15 19 Aug 13:38:51 13:51:12 73° 315° (NW) 14:03:33 29.354- 29.394
DX 1 19 Aug 13:44:33 13:47:45 20° 92° (E) 13:50:57 434.975-435.025
Tancredo 1 19 Aug 13:55:36 13:58:28 51° 4° (N) 14:01:20 437.200
SPROUT 19 Aug 13:57:16 14:01:31 80° 286° (WNW) 14:05:46 437.525
Gurwin Techsat 1B 19 Aug 14:03:24 14:08:44 89° 250° (WSW) 14:14:06 435.225
BEESAT 3 19 Aug 14:10:56 14:14:58 69° 49° (NE) 14:18:55 437.485
BEESAT 2 19 Aug 14:20:55 14:24:45 37° 41° (NE) 14:28:30 435.950
ITAMSAT 1 19 Aug 14:21:04 14:24:56 22° 58° (ENE) 14:28:48 435.822/435.867
50 SAT 19 Aug 14:36:00 14:39:24 84° 283° (WNW) 14:42:46 437.505
ISS 19 Aug 14:36:29 14:39:42 54° 0° (N) 14:42:56 437.550
AO-85 19 Aug 14:39:16 14:43:30 85° 48° (NE) 14:48:03 145.980
Oscar 19 19 Aug 14:43:39 14:48:07 29° 266° (W) 14:52:38 437.125/150
nSIGHT-1 19 Aug 14:47:00 14:50:12 54° 2° (N) 14:53:25 .
AO-7 19 Aug 14:53:32 15:01:43 62° 62° (ENE) 15:09:55 .
UKube-1 19 Aug 15:01:32 15:05:53 75° 104° (ESE) 15:10:11 .
VELOX 1 19 Aug 15:13:56 15:17:18 22° 299° (WNW) 15:20:39 145.980
DX 1 19 Aug 15:20:00 15:24:14 50° 290° (WNW) 15:28:26 434.975-435.025
ITUPSAT 1 19 Aug 15:27:37 15:31:02 19° 91° (E) 15:34:25 437.325
Tancredo 1 19 Aug 15:30:52 15:33:46 67° 204° (SSW) 15:36:39 437.200
SPROUT 19 Aug 15:35:21 15:36:42 11° 304° (NW) 15:38:03 437.525
Gurwin Techsat 1B 19 Aug 15:46:37 15:49:27 14° 273° (W) 15:52:17 435.225
BEESAT 3 19 Aug 15:49:37 15:52:03 16° 248° (WSW) 15:54:27 437.485
YUBILEINY 19 Aug 15:51:19 15:59:14 40° 85° (E) 16:07:09 435.215
RS-15 19 Aug 15:54:38 16:06:07 41° 346° (NNW) 16:17:24 29.354- 29.394
ITAMSAT 1 19 Aug 15:58:44 16:03:55 69° 256° (WSW) 16:09:07 435.822/435.867
BEESAT 2 19 Aug 15:58:47 16:02:27 33° 241° (WSW) 16:06:04 435.950
DOVE 4 19 Aug 16:10:58 16:14:33 19° 59° (ENE) 16:18:04 437.250
ISS 19 Aug 16:13:04 16:16:21 87° 200° (SSW) 16:19:37 437.550
AO-85 19 Aug 16:21:00 16:23:24 15° 248° (WSW) 16:25:54 145.980
CUTE-I 19 Aug 16:22:47 16:23:33 10° 48° (NE) 16:24:19 437.470
nSIGHT-1 19 Aug 16:23:28 16:26:43 75° 203° (SSW) 16:29:57 .
MOZHAYETS 4 19 Aug 16:28:20 16:32:55 60° 101° (E) 16:37:30
BEESAT 19 Aug 16:31:07 16:35:53 71° 103° (ESE) 16:40:39 436.000
UKube-1 19 Aug 16:38:50 16:41:22 15° 302° (WNW) 16:43:53 .
CUBESAT XI-V 19 Aug 16:44:42 16:48:22 22° 91° (E) 16:52:01 437.345
AO-7 19 Aug 16:47:16 16:54:53 38° 263° (W) 17:02:34 .
KKS-1 19 Aug 16:52:45 16:54:00 11° 87° (E) 16:55:16 437.445
ITUPSAT 1 19 Aug 17:04:32 17:09:15 61° 289° (WNW) 17:13:57 437.325
XW-2C 19 Aug 17:05:48 17:07:53 14° 61° (ENE) 17:09:59 145.795 - 145.815
Tancredo 1 19 Aug 17:07:02 17:08:32 13° 222° (SW) 17:10:02 437.200
XW-2F 19 Aug 17:18:35 17:21:10 18° 63° (ENE) 17:23:47 145.980 - 146.000
STARS 19 Aug 17:34:49 17:36:46 13° 88° (E) 17:38:42 437.465
ITAMSAT 1 19 Aug 17:43:41 17:44:21 10° 276° (W) 17:45:01 435.822/435.867
KAITUO 1B 19 Aug 17:45:32 17:48:42 27° 67° (ENE) 17:51:54 145.475/437.950
DOVE 4 19 Aug 17:46:21 17:51:40 81° 257° (WSW) 17:56:51 437.250
YUBILEINY 19 Aug 17:47:10 17:55:46 56° 287° (WNW) 18:04:23 435.215
ISS 19 Aug 17:49:58 17:52:31 21° 218° (SW) 17:55:02 437.550
CUTE-I 19 Aug 17:57:16 18:02:26 51° 68° (ENE) 18:07:36 437.470
HO-68 19 Aug 17:57:50 18:03:53 31° 55° (NE) 18:09:55 435.675
nSIGHT-1 19 Aug 18:00:30 18:02:41 17° 221° (SW) 18:04:51 .
LilacSat-2 19 Aug 18:01:53 18:05:35 56° 73° (ENE) 18:09:20 437.200
MOZHAYETS 4 19 Aug 18:06:21 18:09:41 20° 300° (WNW) 18:13:01
XW-2D 19 Aug 18:07:53 18:11:35 63° 74° (ENE) 18:15:21 145.860 - 145.880
O/OREOS (USA 219) 19 Aug 18:08:52 18:11:28 15° 41° (NE) 18:14:05 437.305
BEESAT 19 Aug 18:09:54 18:13:10 19° 302° (WNW) 18:16:25 436.000
RS-15 19 Aug 18:10:42 18:22:20 44° 20° (NNE) 18:33:29 29.354- 29.394
XW-2B 19 Aug 18:18:50 18:22:35 81° 75° (ENE) 18:26:24 145.730 - 145.750
NUDT-PHONESAT 19 Aug 18:19:54 18:23:31 62° 74° (ENE) 18:27:11 437.300
CUBESAT XI-V 19 Aug 18:21:25 18:26:01 52° 290° (WNW) 18:30:35 437.345
KKS-1 19 Aug 18:26:46 18:31:15 88° 103° (ESE) 18:35:41 437.445
UWE-3 19 Aug 18:37:02 18:37:36 10° 56° (NE) 18:38:10 435.000/436.395/437.385
XW-2C 19 Aug 18:37:55 18:41:38 60° 258° (WSW) 18:45:24 145.795 - 145.815
CUBEBUG 2 19 Aug 18:38:54 18:41:41 17° 61° (ENE) 18:44:27 437.445
CUTE 1.7 + AOD 2 19 Aug 18:41:04 18:44:47 30° 66° (ENE) 18:48:32 437.475
ITUPSAT 1 19 Aug 18:45:06 18:46:08 11° 309° (NW) 18:47:10 437.325
AAUSAT CUBESAT 2 19 Aug 18:48:00 18:49:51 13° 58° (ENE) 18:51:42 437.432
XW-2F 19 Aug 18:51:25 18:55:00 44° 261° (W) 18:58:38 145.980 - 146.000
STARS 19 Aug 19:09:18 19:13:41 80° 287° (WNW) 19:18:02 437.465
ZACube-1 19 Aug 19:17:55 19:20:15 15° 59° (ENE) 19:22:35 437.345
KAITUO 1B 19 Aug 19:19:28 19:22:40 27° 265° (W) 19:25:55 145.475/437.950
DOVE 4 19 Aug 19:27:43 19:30:04 13° 275° (W) 19:32:24 437.250
SEEDS 19 Aug 19:31:01 19:35:10 61° 73° (ENE) 19:39:22 437.485
LilacSat-2 19 Aug 19:38:12 19:40:13 14° 271° (W) 19:42:17 437.200
CUTE-I 19 Aug 19:38:12 19:42:44 27° 267° (W) 19:47:16 437.470
AO-73 19 Aug 19:39:03 19:42:07 21° 63° (ENE) 19:45:13 145.935
XW-2A 19 Aug 19:43:05 19:46:22 69° 75° (ENE) 19:49:43 145.665 - 145.685
HO-68 19 Aug 19:43:59 19:51:07 70° 256° (WSW) 19:58:18 435.675
XW-2D 19 Aug 19:44:36 19:46:12 12° 272° (W) 19:47:49 145.860 - 145.880
O/OREOS (USA 219) 19 Aug 19:47:07 19:51:41 78° 64° (ENE) 19:56:14 437.305
YUBILEINY 19 Aug 19:50:15 19:55:00 15° 314° (NW) 19:59:45 435.215
NUDT-PHONESAT 19 Aug 19:56:21 19:57:49 12° 272° (W) 19:59:17 437.300
STRAND 1 19 Aug 19:58:57 20:03:23 29° 94° (E) 20:07:48 437.568
KKS-1 19 Aug 20:04:53 20:07:09 14° 304° (NW) 20:09:25 437.445
UWE-3 19 Aug 20:09:09 20:13:20 76° 74° (ENE) 20:17:30 435.000/436.395/437.385
CUBEBUG 2 19 Aug 20:13:42 20:17:56 59° 259° (W) 20:22:06 437.445
CUTE 1.7 + AOD 2 19 Aug 20:16:48 20:20:35 31° 265° (W) 20:24:24 437.475
AAUSAT CUBESAT 2 19 Aug 20:20:30 20:24:40 87° 257° (WSW) 20:28:53 437.432
RS-15 19 Aug 20:24:22 20:36:39 85° 51° (NE) 20:48:15 29.354- 29.394
Oscar 11 19 Aug 20:24:31 20:28:35 43° 69° (ENE) 20:32:42 .
STARS 19 Aug 20:47:40 20:49:17 12° 305° (NW) 20:50:55 437.465
ZACube-1 19 Aug 20:51:54 20:56:03 70° 259° (WSW) 21:00:12 437.345
EO-88 19 Aug 21:05:19 21:07:47 17° 63° (ENE) 21:10:15 145.990 - 145.960
SEEDS 19 Aug 21:08:41 21:11:16 16° 271° (W) 21:13:51 437.485
AO-73 19 Aug 21:14:07 21:18:06 46° 261° (W) 21:22:06 145.935
O/OREOS (USA 219) 19 Aug 21:28:05 21:30:27 14° 261° (W) 21:32:50 437.305
HO-68 19 Aug 21:36:31 21:40:10 14° 276° (W) 21:43:50 435.675
DELFI C3 19 Aug 21:37:51 21:41:48 63° 74° (ENE) 21:45:49 145.870
STRAND 1 19 Aug 21:37:54 21:42:44 44° 293° (WNW) 21:47:33 437.568
Max Valier Satellite 19 Aug 21:40:47 21:44:19 50° 73° (ENE) 21:47:53 145.860
UWE-3 19 Aug 21:48:36 21:50:19 12° 272° (W) 21:52:02 435.000/436.395/437.385
Oscar 11 19 Aug 22:01:32 22:04:55 22° 268° (W) 22:08:20 .
TIGRISAT 19 Aug 22:07:23 22:09:58 15° 90° (E) 22:12:33 435.000
FO-29 19 Aug 22:22:31 22:28:09 49° 99° (E) 22:33:16 435.910
PCSat 19 Aug 22:30:37 22:34:01 17° 105° (ESE) 22:37:25 145.827
EO-88 19 Aug 22:37:41 22:41:09 43° 261° (W) 22:44:40 145.990 - 145.960
RS-15 19 Aug 22:37:44 22:47:49 34° 256° (WSW) 22:57:30 29.354- 29.394
LO-87 19 Aug 22:38:31 22:41:35 27° 67° (ENE) 22:44:40 145.935 - 145.965
ESTCUBE 1 19 Aug 22:50:01 22:53:56 30° 65° (ENE) 22:57:54 437.505/2401.250
VELOX 1 19 Aug 23:04:48 23:06:24 12° 54° (NE) 23:07:59 145.980
UNISAT 6 19 Aug 23:07:19 23:11:35 63° 101° (E) 23:15:55 437.425
DELFI C3 19 Aug 23:14:54 23:17:00 14° 271° (W) 23:19:07 145.870
Max Valier Satellite 19 Aug 23:16:26 23:18:28 14° 270° (W) 23:20:31 145.860
SPROUT 19 Aug 23:20:11 23:22:58 17° 60° (ENE) 23:25:45 437.525
SO-50 19 Aug 23:28:35 23:32:07 23° 115° (ESE) 23:35:38 436.795
PRISM 19 Aug 23:34:31 23:38:42 82° 104° (ESE) 23:42:48 437.425
TIGRISAT 19 Aug 23:42:50 23:47:05 63° 288° (WNW) 23:51:23 435.000
